カタログに戻る

FENGYUN 1C DEB

運用中PO
NORAD 33691·DEBRIS·🇨🇳 China

打ち上げ May 10, 1999 から Taiyuan Satellite Launch Center

Loading…

次のパス (今後24時間)

TLE

最新Source: Space-Track

元期: Sep 12, 2026, 10:57 UTC

1 33691U 99025DGC 26255.45652429  .00002991  00000-0  12527-2 0  9994
2 33691  99.1501 253.9018 0065975   3.2316 356.9275 14.25651981943863

AllMySatでFENGYUN 1C DEBをリアルタイム追跡

Download on the App Store